Regional Weather Roundup
Issued by NWS Grand Forks, ND

Home | Current Version | Previous Version | Graphics & Text | Print | Product List | Glossary On
Versions: 1 2 3 4 5 6 7 8 9 10 11 12 13 14 15 16 17 18 19 20 21 22 23 24 25 26 27 28 29 30 31 32 33 34 35 36 37 38 39 40 41 42 43 44 45 46 47 48 49 50
000
ASUS43 KFGF 200031
RWRFGF
PRAIRIE TO PINES  WEATHER ROUNDUP
NATIONAL WEATHER SERVICE EASTERN NORTH DAKOTA/GRAND FORKS ND
600 PM CST MON FEB 19 2018

 **SATELLITE DATA USED TO AUGMENT SKY COVER AT AUTOMATED STATIONS**
 *****  WEATHER ACROSS EASTERN NORTH DAKOTA  *****

CITY           SKY/WX    TMP DP  RH WIND       PRES   REMARKS
GRAND FORKS    CLOUDY     6  -4  63 N13       30.23S WCI -10
6HR MIN TEMP:   4; 6HR MAX TEMP:   6;

GRAND FRKS AFB FAIR       5  -6  60 N15       30.23R WCI -13
GRAND FRKS NWS   N/A      5  -3  71 N9        30.20S WCI -10
DEVILS LAKE    CLOUDY     4  -7  60 NE6       30.21  WCI  -7
6HR MIN TEMP:   1; 6HR MAX TEMP:   4;

FARGO          CLOUDY     7  -1  70 N22       30.15R WCI -14
WAHPETON ARPT  CLOUDY    10   5  79 N20G26    30.07R WCI  -8
$$

 ***** WEATHER ACROSS CENTRAL AND WESTERN NORTH DAKOTA  *****

CITY           SKY/WX    TMP DP  RH WIND       PRES   REMARKS
BISMARCK       LGT SNOW   4  -1  80 NE12      30.16F WCI -12
6HR MIN TEMP:   4; 6HR MAX TEMP:   7; 6HR PCP:  0.02;

MINOT          CLOUDY     8  -6  52 W3        30.17R
6HR MIN TEMP:   5; 6HR MAX TEMP:   9;

JAMESTOWN      LGT SNOW   4  -2  76 N17       30.14R WCI -16
6HR MIN TEMP:   4; 6HR MAX TEMP:   7; 6HR PCP: TRACE;

MINOT AFB      CLEAR      7  -2  66 CALM      30.16S
GARRISON         N/A      4  -4  69 VRB3      30.15R
WILLISTON      CLOUDY     3  -3  76 W3        30.15F
6HR MIN TEMP:  -3; 6HR MAX TEMP:   6;

DICKINSON      LGT SNOW   2  -3  80 NE7       30.05F VSB 1   WCI -11
6HR MIN TEMP:   2; 6HR MAX TEMP:   5; 6HR PCP: TRACE;

HETTINGER      CLOUDY     1  -5  75 NE10      30.03F HAZE    WCI -15
6HR MIN TEMP:   1; 6HR MAX TEMP:   3; 6HR PCP: TRACE;

$$

 *****  OTHER AIRPORT OBSERVATIONS IN OUR AREA  *****

CITY           SKY/WX    TMP DP  RH WIND       PRES   REMARKS
WALHALLA       FAIR       5  -8  56 N7        30.26R WCI  -7
GRAFTON AIRPOR FAIR       5  -6  61 N13       30.27R WCI -12
VALLEY CITY AR LGT SNOW   3  -2  78 N16G23    30.15R WCI -16
CANDO          CLOUDY     5  -9  51 CALM      30.23R
CAVALIER APRT    N/A      5  -6  61 N9        30.26R WCI  -9
GWINNER        HAZE       5   1  85 N23G30    30.07S VSB 1   WCI -17
SHEYENNE NWR     N/A      5   0  78 N16       29.95S WCI -14
ROLLA          CLOUDY     3  -8  60 SW7       30.16R WCI  -9
 ***** THE ABOVE OBSERVATIONS ARE NON NWS ARE NOT QUALITY
       CONTROLLED AND MAY MIS-REPORT RAIN FOR SNOW...
$$

  *****  WEATHER ACROSS NORTHERN MINNESOTA  *****

CITY           SKY/WX    TMP DP  RH WIND       PRES   REMARKS
FLAG ISLAND    FAIR       7  -8  51 NE7       30.21S WCI  -5
WARROAD        FAIR       7  -6  56 N8        30.21S WCI  -6
ROSEAU         FAIR       9   0  66 E7        30.21S WCI  -3
HALLOCK        FAIR       7  -8  51 N9        30.25R WCI  -7
THF RVR FALLS  CLOUDY     6  -4  63 N15       30.17F WCI -12
6HR MIN TEMP:   6; 6HR MAX TEMP:  10;

BAUDETTE       CLOUDY     8  -2  63 N9        30.16F WCI  -5
6HR MIN TEMP:   3; 6HR MAX TEMP:  11;

WASKISH        FAIR      10   0  61 NE8       30.14S WCI  -1
CROOKSTON      FAIR       7  -2  66 N16       30.20S WCI -11
STEPHEN NDAWN    N/A      5  -6  61 N12         N/A  WCI -11
GREENBUSH NDAW   N/A      7  -6  56 N6          N/A  WCI  -3
$$
  *****  WEATHER ACROSS CENTRAL AND WEST MINNESOTA  *****

CITY           SKY/WX    TMP DP  RH WIND       PRES   REMARKS
FOSSTON        MOCLDY     5  -2  72 N9        30.12S WCI  -9
BEMIDJI        CLOUDY    10   1  65 NE9       30.08F WCI  -3
6HR MIN TEMP:   8; 6HR MAX TEMP:  12;

PARK RAPIDS    LGT SNOW  11   4  73 NE12      30.03F WCI  -3
6HR MIN TEMP:  10; 6HR MAX TEMP:  13; 6HR PCP: TRACE;

ELBOW LAKE     CLOUDY    12   8  83 NE15G22   30.00F WCI  -4
6HR MIN TEMP:  12; 6HR MAX TEMP:  14;

WADENA         LGT SNOW  10   7  85 NE14      30.01F WCI  -5
DETROIT LAKES  LGT SNOW  12   7  79 NE9       30.06R WCI   0
MOORHEAD       MIX PCPN   7   0  72 N22G29    30.12F WCI -14
FERGUS FALLS   FLURRIES  10   7  85 N10       30.04F WCI  -3
MORRIS MN      CLOUDY    12   7  79 N21       29.99R WCI  -6
STAPLES        FLURRIES  10   3  72 N13       30.02S WCI  -5
$$
  *****  WEATHER ELSEWHERE ACROSS MINNESOTA  *****

CITY           SKY/WX    TMP DP  RH WIND       PRES   REMARKS
DULUTH         LGT SNOW  14   9  80 NE13      30.01S VSB 1   WCI   0
6HR MIN TEMP:  11; 6HR MAX TEMP:  14; 6HR PCP:  0.11;

INTRNTL FALLS  CLOUDY    10  -1  61 N8        30.16R WCI  -2
6HR MIN TEMP:   7; 6HR MAX TEMP:  11;

ELY            LGT SNOW   9   1  72 NE7       30.10R WCI  -3
CLOQUET        LGT SNOW  14   9  79 NE10      30.02R WCI   1
WHEATON        FLURRIES  10   7  85 N15G21    30.06R WCI  -6
BRAINERD       FLURRIES  14   4  64 NE16      30.02S WCI  -2
6HR MIN TEMP:  12; 6HR MAX TEMP:  15; 6HR PCP: TRACE;

HIBBING        LGT SNOW   9   2  73 N9        30.07R WCI  -4
6HR MIN TEMP:   8; 6HR MAX TEMP:  10; 6HR PCP: TRACE;

ALEXANDRIA     CLOUDY    12   6  77 NE16      29.97S HAZE    WCI  -5
6HR MIN TEMP:  12; 6HR MAX TEMP:  15; 6HR PCP: TRACE;

SAINT CLOUD    CLOUDY    15  12  88 N13       29.96R WCI   1
6HR MIN TEMP:  15; 6HR MAX TEMP:  17; 6HR PCP: TRACE;

MINNEAPOLIS    FRZ DRZL  21  20  96 NE14      29.89R FOG     WCI   8
6HR MIN TEMP:  21; 6HR MAX TEMP:  23; 6HR PCP:  0.08;

$$

  *****  WEATHER ACROSS SOUTH DAKOTA  *****

CITY           SKY/WX    TMP DP  RH WIND       PRES   REMARKS
SIOUX FALLS    LGT SNOW  15  11  83 NE20G25   29.87F FOG     WCI  -2
6HR MIN TEMP:  15; 6HR MAX TEMP:  18; 6HR PCP: TRACE;

BROOKINGS      LGT SNOW  10   7  85 NE15G29   29.89S FOG     WCI  -6
WATERTOWN      CLOUDY     7   4  87 N20G30    29.92R FOG     WCI -13
6HR MIN TEMP:   8; 6HR MAX TEMP:  10;

HURON          LGT SNOW  10   6  84 N17       30.00R FOG     WCI  -8
6HR MIN TEMP:  10; 6HR MAX TEMP:  12; 6HR PCP: TRACE;

SISSETON         N/A      8   5  87 N24       30.04S WCI -13
ABERDEEN       LGT SNOW   8   3  80 N24G31    30.06R WCI -13
6HR MIN TEMP:   8; 6HR MAX TEMP:  13; 6HR PCP:  0.01;

MITCHELL       LGT SNOW  14   9  80 N16       29.97R WCI  -2
PIERRE         FLURRIES   8   4  83 N18       30.01S WCI -11
6HR MIN TEMP:   8; 6HR MAX TEMP:   9; 6HR PCP: TRACE;

MOBRIDGE       LGT SNOW   7   0  73 N16       30.04F VSB 3/4 WCI -11
RAPID CITY     LGT SNOW   0  -5  79 N14       29.95R VSB 1   WCI -19
6HR MIN TEMP:   0; 6HR MAX TEMP:   2; 6HR PCP:  0.10;

$$

  *****  SOME WEATHER IN NEARBY STATES *****

CITY           SKY/WX    TMP DP  RH WIND       PRES   REMARKS
GLASGOW MT     FAIR      -3  -9  75 NW5       30.12R WCI -13
6HR MIN TEMP:  -3; 6HR MAX TEMP:   1; 6HR PCP:  0.01;

GREAT FALLS MT MOCLDY    -7 -12  79 W5        29.98S WCI -18
6HR MIN TEMP:  -7; 6HR MAX TEMP:   0;

CHEYENNE WY    LGT SNOW   0  -3  87 NE9       29.56R VSB 3/4 WCI -15
6HR MIN TEMP:   1; 6HR MAX TEMP:   6; 6HR PCP:  0.01;

SCOTTSBLUFF NE LGT SNOW   5  -2  72 N8        29.81R WCI  -8
6HR MIN TEMP:   5; 6HR MAX TEMP:   8; 6HR PCP:  0.01;

OMAHA NE       FLURRIES  23  20  88 N10       29.87R WCI  12
6HR MIN TEMP:  22; 6HR MAX TEMP:  25; 6HR PCP: TRACE;

DES MOINES IA  CLOUDY    30  28  92 NW13      29.78S FOG     WCI  20
6HR MIN TEMP:  30; 6HR MAX TEMP:  36; 6HR PCP: TRACE;

DAVENPORT IA   LGT RAIN  59  56  89 SW10      29.74S FOG
6HR MIN TEMP:  59; 6HR MAX TEMP:  63; 6HR PCP:  0.04;

CHICAGO IL     LGT RAIN  58  55  90 SW18G29   29.82R
6HR MIN TEMP:  43; 6HR MAX TEMP:  58; 6HR PCP:  0.05;

EAU CLAIRE WI  FOG       23  22  96 NE9       29.85R VSB 1   WCI  13
6HR MIN TEMP:  23; 6HR MAX TEMP:  24; 6HR PCP:  0.03;

LA CROSSE WI   CLOUDY    36  34  92 NE6       29.76S FOG
6HR MIN TEMP:  36; 6HR MAX TEMP:  39; 6HR PCP:  0.01;

$$

  *****  SOME NATIONAL WEATHER *****

CITY           SKY/WX    TMP DP  RH WIND       PRES   REMARKS
LA GUARDIA NY  CLOUDY    48  44  86 S6        30.34F
6HR MIN TEMP:  47; 6HR MAX TEMP:  49; 6HR PCP:  0.01;

RALEIGH NC     DRZL/FOG  49  49 100 CALM      30.41R VSB 1/4
6HR MIN TEMP:  45; 6HR MAX TEMP:  49; 6HR PCP: TRACE;

ATLANTA GA     MOCLDY    66  62  87 E13       30.28R
6HR MIN TEMP:  66; 6HR MAX TEMP:  76;

NEW ORLEANS LA FAIR      77  68  73 S9        30.12R
6HR MIN TEMP:  77; 6HR MAX TEMP:  82;

OKLAHOMA CITY  DRIZZLE   45  38  76 NE13      29.74S
6HR MIN TEMP:  45; 6HR MAX TEMP:  74; 6HR PCP: TRACE;

ALBUQUERQUE NM MOCLDY    56  29  35 SW21G38   29.55F
6HR MIN TEMP:  50; 6HR MAX TEMP:  57; 6HR PCP:  0.03;

SALT LAKE CITY CLOUDY    29  20  69 N3        29.65R
6HR MIN TEMP:  27; 6HR M



USA.gov is the U.S. government's official web portal to all federal, state and local government web resources and services.